Weather History for Miami, FL

Change the Weather History Date:

Tuesday, April 30, 2013

  Actual Average Record
Temperature  
Mean Temperature 76 °F 78 °F  
Max Temperature 83 °F 85 °F 96 °F (1971)
Min Temperature 69 °F 70 °F 55 °F (1916)
Degree Days  
Heating Degree Days 0 0  
Month to date heating degree days 0 0  
Since 1 July heating degree days 70 128  
Cooling Degree Days 11 13  
Month to date cooling degree days 395 324  
Year to date cooling degree days 1007 893  
Growing Degree Days 26 (Base 50)    
Moisture  
Dew Point 69 °F    
Average Humidity 77    
Maximum Humidity 87    
Minimum Humidity 67    
Precipitation  
Precipitation 2.33 in 0.09 in 2.33 in (2013)
Month to date precipitation 5.14 3.14  
Year to date precipitation 8.34 10.01  
Snow  
Snow 0.00 in - - ()
Month to date snowfall 0.0  
Since 1 July snowfall 0.0  
Snow Depth 0.00 in    
Sea Level Pressure  
Sea Level Pressure 29.98 in    
Wind  
Wind Speed 7 mph (ESE)    
Max Wind Speed 17 mph    
Max Gust Speed 24 mph    
Visibility 8 miles    
Events Rain , Thunderstorm    
T = Trace of Precipitation, MM = Missing Value Source: NWS Daily Summary

Daily Weather History Graph

Daily Weather History Graph

Search for Another Location

Airport:

Trip Planner

Search our weather history database for the weather conditions in past years. The results will help you decide how hot, cold, wet, or windy it might be!

Date:

Astronomy

Apr. 30, 2013 Rise Set
Actual Time 6:45 AM EDT 7:52 PM EDT
Civil Twilight 6:20 AM EDT 8:16 PM EDT
Nautical Twilight 5:52 AM EDT 8:45 PM EDT
Astronomical Twilight 5:22 AM EDT 9:14 PM EDT
Moon 12:07 AM EDT (4/30) 11:17 AM EDT (4/30)
Length of Visible Light 13h 55m
Length of Day
13h 07m
Waning Gibbous, 70% of the Moon is Illuminated
Apr 30
Waning Gibbous
May 2
Last Quarter
May 9
New
May 18
First Quarter
May 25
Full

Hourly Weather History & Observations

Time (EDT) Temp. Heat Index Dew Point Humidity Pressure Visibility Wind Dir Wind Speed Gust Speed Precip Events Conditions
12:04 AM 77.0 °F - 69.8 °F 78% 29.98 in 10.0 mi SE 8.1 mph - N/A   Mostly Cloudy
12:53 AM 77.0 °F - 70.0 °F 79% 29.98 in 10.0 mi SE 4.6 mph - N/A   Mostly Cloudy
1:53 AM 75.9 °F - 69.1 °F 79% 29.96 in 10.0 mi SE 5.8 mph - N/A   Scattered Clouds
2:53 AM 75.9 °F - 69.1 °F 79% 29.95 in 10.0 mi SSE 3.5 mph - N/A   Scattered Clouds
3:53 AM 75.9 °F - 69.1 °F 79% 29.95 in 10.0 mi SE 4.6 mph - N/A   Scattered Clouds
4:53 AM 75.0 °F - 69.1 °F 82% 29.94 in 10.0 mi SE 6.9 mph - N/A   Mostly Cloudy
5:53 AM 75.0 °F - 70.0 °F 84% 29.95 in 10.0 mi Variable 4.6 mph - N/A   Scattered Clouds
6:53 AM 75.9 °F - 70.0 °F 82% 29.96 in 10.0 mi Variable 4.6 mph - N/A   Mostly Cloudy
7:53 AM 78.1 °F - 71.1 °F 79% 29.99 in 10.0 mi Calm Calm - N/A   Scattered Clouds
8:53 AM 80.1 °F 83.2 °F 70.0 °F 71% 30.00 in 10.0 mi SSE 9.2 mph - N/A   Mostly Cloudy
9:48 AM 80.6 °F 83.9 °F 69.8 °F 70% 30.01 in 10.0 mi Variable 5.8 mph - N/A   Mostly Cloudy
9:53 AM 82.0 °F 86.3 °F 71.1 °F 69% 30.01 in 10.0 mi Variable 5.8 mph - N/A   Mostly Cloudy
10:28 AM 82.4 °F 86.3 °F 69.8 °F 66% 30.00 in 10.0 mi SSE 9.2 mph - N/A   Mostly Cloudy
10:46 AM 77.0 °F - 71.6 °F 83% 30.00 in 5.0 mi South 13.8 mph 19.6 mph 0.02 in Rain Rain
10:53 AM 73.9 °F - 69.1 °F 85% 30.01 in 4.0 mi South 13.8 mph 24.2 mph 0.15 in Rain Heavy Rain
10:58 AM 71.6 °F - 68.0 °F 88% 30.00 in 1.5 mi SSW 11.5 mph 24.2 mph 0.19 in Rain Heavy Rain
11:14 AM 73.4 °F - 69.8 °F 88% 30.00 in 5.0 mi SW 3.5 mph - 0.31 in Rain Light Rain
11:53 AM 73.9 °F - 69.1 °F 85% 30.01 in 5.0 mi ESE 11.5 mph - 0.33 in Rain Light Rain
12:53 PM 73.0 °F - 68.0 °F 84% 30.00 in 6.0 mi ESE 8.1 mph - 0.06 in Rain Light Rain
1:04 PM 73.4 °F - 68.0 °F 83% 29.99 in 2.0 mi ENE 4.6 mph - 0.16 in Rain Heavy Rain
1:24 PM 71.6 °F - 69.8 °F 94% 30.01 in 0.8 mi NNE 3.5 mph - 0.47 in Rain Heavy Rain
1:27 PM 71.6 °F - 68.0 °F 88% 30.01 in 0.8 mi NE 3.5 mph - 0.72 in Rain , Thunderstorm Heavy Thunderstorms and Rain
1:47 PM 69.8 °F - 66.2 °F 88% 30.00 in 1.0 mi ESE 8.1 mph - 1.10 in Rain , Thunderstorm Heavy Thunderstorms and Rain
1:53 PM 70.0 °F - 68.0 °F 93% 30.00 in 2.0 mi ESE 8.1 mph - 1.12 in Rain , Thunderstorm Thunderstorms and Rain
2:30 PM 69.8 °F - 68.0 °F 94% 30.00 in 6.0 mi NNE 6.9 mph - 0.67 in Rain , Thunderstorm Light Thunderstorms and Rain
2:53 PM 73.0 °F - 69.1 °F 87% 29.99 in 10.0 mi ENE 11.5 mph - 0.67 in   Mostly Cloudy
3:53 PM 78.1 °F - 68.0 °F 71% 29.96 in 10.0 mi East 9.2 mph - N/A   Mostly Cloudy
4:53 PM 79.0 °F - 66.9 °F 66% 29.96 in 10.0 mi East 6.9 mph - N/A   Mostly Cloudy
5:53 PM 78.1 °F - 68.0 °F 71% 29.96 in 10.0 mi ESE 10.4 mph - N/A   Mostly Cloudy
6:53 PM 78.1 °F - 70.0 °F 76% 29.98 in 10.0 mi ESE 9.2 mph - N/A   Mostly Cloudy
7:53 PM 77.0 °F - 68.0 °F 74% 29.98 in 10.0 mi East 9.2 mph - N/A   Mostly Cloudy
8:53 PM 75.9 °F - 69.1 °F 79% 29.98 in 10.0 mi East 6.9 mph - N/A   Scattered Clouds
9:53 PM 75.0 °F - 68.0 °F 79% 29.99 in 10.0 mi ESE 4.6 mph - N/A   Scattered Clouds
10:53 PM 75.9 °F - 70.0 °F 82% 30.00 in 10.0 mi Variable 3.5 mph - N/A   Scattered Clouds
11:53 PM 75.9 °F - 71.1 °F 85% 29.99 in 10.0 mi SSE 3.5 mph - N/A   Scattered Clouds